date,time,SUV Intensity [MED/Hr],UV Index,Daily total [MED],Since Last [MED]
24/07/2022,00:10:48,0.000,0.0,0.0,0.0
24/07/2022,00:11:48,-0.000,0.0,0.0,0.0
24/07/2022,00:12:48,0.000,0.0,0.0,0.0
24/07/2022,00:13:48,-0.000,0.0,0.0,0.0
24/07/2022,00:14:49,0.000,0.0,0.0,0.0
24/07/2022,00:15:48,-0.000,0.0,0.0,0.0
24/07/2022,00:16:48,0.000,0.0,0.0,0.0
24/07/2022,00:17:48,0.000,0.0,0.0,0.0
24/07/2022,00:18:48,-0.000,0.0,0.0,0.0
24/07/2022,00:19:47,0.000,0.0,0.0,0.0
24/07/2022,00:20:48,-0.000,0.0,0.0,0.0
24/07/2022,00:21:48,0.000,0.0,0.0,0.0
24/07/2022,00:22:47,0.000,0.0,0.0,0.0
24/07/2022,00:23:48,-0.001,0.0,0.0,0.0
24/07/2022,00:24:56,0.000,0.0,0.0,0.0
24/07/2022,00:25:47,0.000,0.0,0.0,0.0
24/07/2022,00:26:48,-0.000,0.0,0.0,0.0
24/07/2022,00:27:56,-0.000,0.0,0.0,0.0
24/07/2022,00:28:47,0.000,0.0,0.0,0.0
24/07/2022,00:29:47,0.000,0.0,0.0,0.0
24/07/2022,00:30:47,-0.000,0.0,0.0,0.0
24/07/2022,00:31:48,0.000,0.0,0.0,0.0
24/07/2022,00:32:48,0.000,0.0,0.0,0.0
24/07/2022,00:33:47,0.000,0.0,0.0,0.0
24/07/2022,00:34:47,-0.001,0.0,0.0,0.0
24/07/2022,00:35:47,0.000,0.0,0.0,0.0
24/07/2022,00:36:48,0.001,0.0,0.0,0.0
24/07/2022,00:37:47,0.000,0.0,0.0,0.0
24/07/2022,00:38:47,-0.001,0.0,0.0,0.0
24/07/2022,00:39:48,0.000,0.0,0.0,0.0
24/07/2022,00:40:47,0.000,0.0,0.0,0.0
24/07/2022,00:41:48,0.000,0.0,0.0,0.0
24/07/2022,00:42:48,0.000,0.0,0.0,0.0
24/07/2022,00:43:49,0.000,0.0,0.0,0.0
24/07/2022,00:44:48,0.000,0.0,0.0,0.0
24/07/2022,00:45:48,-0.000,0.0,0.0,0.0
24/07/2022,00:46:47,0.000,0.0,0.0,0.0
24/07/2022,00:47:47,0.000,0.0,0.0,0.0
24/07/2022,00:48:48,-0.000,0.0,0.0,0.0
24/07/2022,00:49:48,-0.000,0.0,0.0,0.0
24/07/2022,00:50:47,0.000,0.0,0.0,0.0
24/07/2022,00:51:48,-0.000,0.0,0.0,0.0
24/07/2022,00:52:48,-0.000,0.0,0.0,0.0
24/07/2022,00:53:48,0.000,0.0,0.0,0.0
24/07/2022,00:54:48,-0.001,0.0,0.0,0.0
24/07/2022,00:55:48,-0.000,0.0,0.0,0.0
24/07/2022,00:56:48,-0.000,0.0,0.0,0.0
24/07/2022,00:57:48,0.001,0.0,0.0,0.0
24/07/2022,00:58:59,0.000,0.0,0.0,0.0
24/07/2022,01:00:49,-0.000,0.0,0.0,0.0
24/07/2022,01:01:49,0.000,0.0,0.0,0.0
24/07/2022,01:02:48,-0.000,0.0,0.0,0.0
24/07/2022,01:03:47,0.000,0.0,0.0,0.0
24/07/2022,01:04:48,0.000,0.0,0.0,0.0
24/07/2022,01:05:48,-0.000,0.0,0.0,0.0
24/07/2022,01:06:47,-0.000,0.0,0.0,0.0
24/07/2022,01:07:48,-0.001,0.0,0.0,0.0
24/07/2022,01:08:47,-0.000,0.0,0.0,0.0
24/07/2022,01:09:47,-0.000,0.0,0.0,0.0
24/07/2022,01:10:47,0.001,0.0,0.0,0.0
24/07/2022,01:11:48,0.000,0.0,0.0,0.0
24/07/2022,01:12:48,-0.000,0.0,0.0,0.0
24/07/2022,01:13:47,-0.000,0.0,0.0,0.0
24/07/2022,01:14:48,0.001,0.0,0.0,0.0
24/07/2022,01:15:47,0.000,0.0,0.0,0.0
24/07/2022,01:16:48,0.000,0.0,0.0,0.0
24/07/2022,01:17:47,-0.000,0.0,0.0,0.0
24/07/2022,01:18:47,-0.000,0.0,0.0,0.0
24/07/2022,01:19:48,-0.000,0.0,0.0,0.0
24/07/2022,01:20:48,-0.000,0.0,0.0,0.0
24/07/2022,01:21:47,0.000,0.0,0.0,0.0
24/07/2022,01:22:56,-0.000,0.0,0.0,0.0
24/07/2022,01:23:48,-0.001,0.0,0.0,0.0
24/07/2022,01:24:48,0.000,0.0,0.0,0.0
24/07/2022,01:25:48,-0.000,0.0,0.0,0.0
24/07/2022,01:26:47,0.000,0.0,0.0,0.0
24/07/2022,01:27:48,-0.000,0.0,0.0,0.0
24/07/2022,01:28:48,0.000,0.0,0.0,0.0
24/07/2022,01:29:47,-0.001,0.0,0.0,0.0
24/07/2022,01:30:48,-0.001,0.0,0.0,0.0
24/07/2022,01:31:48,-0.000,0.0,0.0,0.0
24/07/2022,01:32:47,-0.000,0.0,0.0,0.0
24/07/2022,01:33:48,0.001,0.0,0.0,0.0
24/07/2022,01:34:48,-0.000,0.0,0.0,0.0
24/07/2022,01:35:47,-0.000,0.0,0.0,0.0
24/07/2022,01:36:48,0.001,0.0,0.0,0.0
24/07/2022,01:37:56,0.000,0.0,0.0,0.0
24/07/2022,01:38:48,-0.001,0.0,0.0,0.0
24/07/2022,01:39:48,-0.000,0.0,0.0,0.0
24/07/2022,01:40:56,-0.000,0.0,0.0,0.0
24/07/2022,01:41:47,-0.000,0.0,0.0,0.0
24/07/2022,01:42:48,0.000,0.0,0.0,0.0
24/07/2022,01:43:56,-0.001,0.0,0.0,0.0
24/07/2022,01:44:48,-0.000,0.0,0.0,0.0
24/07/2022,01:45:48,-0.000,0.0,0.0,0.0
24/07/2022,01:46:56,-0.000,0.0,0.0,0.0
24/07/2022,01:47:47,0.001,0.0,0.0,0.0
24/07/2022,01:48:48,-0.000,0.0,0.0,0.0
24/07/2022,01:49:47,-0.000,0.0,0.0,0.0
24/07/2022,01:50:48,0.001,0.0,0.0,0.0
24/07/2022,01:51:48,0.000,0.0,0.0,0.0
24/07/2022,01:52:48,0.000,0.0,0.0,0.0
24/07/2022,01:53:47,-0.000,0.0,0.0,0.0
24/07/2022,01:54:48,0.001,0.0,0.0,0.0
24/07/2022,01:55:48,-0.000,0.0,0.0,0.0
24/07/2022,01:56:48,-0.000,0.0,0.0,0.0
24/07/2022,01:57:48,-0.001,0.0,0.0,0.0
24/07/2022,01:58:48,-0.001,0.0,0.0,0.0
24/07/2022,01:59:48,-0.001,0.0,0.0,0.0
24/07/2022,02:00:48,-0.000,0.0,0.0,0.0
24/07/2022,02:01:57,-0.000,0.0,0.0,0.0
24/07/2022,02:02:48,0.000,0.0,0.0,0.0
24/07/2022,02:03:48,0.000,0.0,0.0,0.0
24/07/2022,02:04:56,0.000,0.0,0.0,0.0
24/07/2022,02:05:48,-0.001,0.0,0.0,0.0
24/07/2022,02:06:48,0.000,0.0,0.0,0.0
24/07/2022,02:07:48,0.000,0.0,0.0,0.0
24/07/2022,02:08:48,0.000,0.0,0.0,0.0
24/07/2022,02:09:48,0.001,0.0,0.0,0.0
24/07/2022,02:10:48,0.000,0.0,0.0,0.0
24/07/2022,02:11:48,-0.001,0.0,0.0,0.0
24/07/2022,02:12:48,0.000,0.0,0.0,0.0
24/07/2022,02:13:47,0.001,0.0,0.0,0.0
24/07/2022,02:14:48,0.000,0.0,0.0,0.0
24/07/2022,02:15:47,0.000,0.0,0.0,0.0
24/07/2022,02:16:56,0.001,0.0,0.0,0.0
24/07/2022,02:17:55,0.001,0.0,0.0,0.0
24/07/2022,02:18:48,0.001,0.0,0.0,0.0
24/07/2022,02:19:48,-0.001,0.0,0.0,0.0
24/07/2022,02:20:48,0.001,0.0,0.0,0.0
24/07/2022,02:21:47,0.001,0.0,0.0,0.0
24/07/2022,02:22:48,0.001,0.0,0.0,0.0
24/07/2022,02:23:48,0.001,0.0,0.0,0.0
24/07/2022,02:24:48,0.001,0.0,0.0,0.0
24/07/2022,02:25:48,0.001,0.0,0.0,0.0
24/07/2022,02:26:48,0.001,0.0,0.0,0.0
24/07/2022,02:27:47,0.001,0.0,0.0,0.0
24/07/2022,02:29:00,0.001,0.0,0.0,0.0
24/07/2022,02:30:49,0.001,0.0,0.0,0.0
24/07/2022,02:31:56,0.001,0.0,0.0,0.0
24/07/2022,02:32:48,0.001,0.0,0.0,0.0
24/07/2022,02:33:48,0.001,0.0,0.0,0.0
24/07/2022,02:34:56,0.001,0.0,0.0,0.0
24/07/2022,02:35:48,0.001,0.0,0.0,0.0
24/07/2022,02:36:48,0.001,0.0,0.0,0.0
24/07/2022,02:37:47,0.001,0.0,0.0,0.0
24/07/2022,02:38:48,0.001,0.0,0.0,0.0
24/07/2022,02:39:48,0.001,0.0,0.0,0.0
24/07/2022,02:40:48,0.001,0.0,0.0,0.0
24/07/2022,02:41:47,0.001,0.0,0.0,0.0
24/07/2022,02:42:48,0.001,0.0,0.0,0.0
24/07/2022,02:43:49,0.001,0.0,0.0,0.0
24/07/2022,02:44:48,0.001,0.0,0.0,0.0
24/07/2022,02:45:48,0.001,0.0,0.0,0.0
24/07/2022,02:46:48,0.001,0.0,0.0,0.0
24/07/2022,02:47:48,0.001,0.0,0.0,0.0
24/07/2022,02:48:48,0.001,0.0,0.0,0.0
24/07/2022,02:49:48,0.001,0.0,0.0,0.0
24/07/2022,02:50:48,0.001,0.0,0.0,0.0
24/07/2022,02:51:48,0.001,0.0,0.0,0.0
24/07/2022,02:52:48,0.001,0.0,0.0,0.0
24/07/2022,02:53:48,0.001,0.0,0.0,0.0
24/07/2022,02:54:48,0.001,0.0,0.0,0.0
24/07/2022,02:55:56,0.001,0.0,0.0,0.0
24/07/2022,02:56:48,0.001,0.0,0.0,0.0
24/07/2022,02:57:48,0.001,0.0,0.0,0.0
24/07/2022,02:58:39,0.001,0.0,0.0,0.0
24/07/2022,02:59:49,0.001,0.0,0.0,0.0
24/07/2022,03:00:49,0.001,0.0,0.0,0.0
24/07/2022,03:01:48,0.001,0.0,0.0,0.0
24/07/2022,03:02:48,0.001,0.0,0.0,0.0
24/07/2022,03:03:48,0.001,0.0,0.0,0.0
24/07/2022,03:04:48,0.001,0.0,0.0,0.0
24/07/2022,03:05:48,0.002,0.0,0.0,0.0
24/07/2022,03:06:48,0.001,0.0,0.0,0.0
24/07/2022,03:07:48,0.001,0.0,0.0,0.0
24/07/2022,03:08:56,0.000,0.0,0.0,0.0
24/07/2022,03:09:47,0.001,0.0,0.0,0.0
24/07/2022,03:10:48,0.001,0.0,0.0,0.0
24/07/2022,03:11:56,0.001,0.0,0.0,0.0
24/07/2022,03:12:56,0.001,0.0,0.0,0.0
24/07/2022,03:13:49,0.001,0.0,0.0,0.0
24/07/2022,03:14:56,0.001,0.0,0.0,0.0
24/07/2022,03:15:47,0.001,0.0,0.0,0.0
24/07/2022,03:16:50,0.001,0.0,0.0,0.0
24/07/2022,03:17:56,0.001,0.0,0.0,0.0
24/07/2022,03:18:48,0.001,0.0,0.0,0.0
24/07/2022,03:19:48,0.001,0.0,0.0,0.0
24/07/2022,03:20:48,0.001,0.0,0.0,0.0
24/07/2022,03:21:48,0.001,0.0,0.0,0.0
24/07/2022,03:22:48,0.001,0.0,0.0,0.0
24/07/2022,03:23:48,0.001,0.0,0.0,0.0
24/07/2022,03:24:48,0.001,0.0,0.0,0.0
24/07/2022,03:25:48,0.001,0.0,0.0,0.0
24/07/2022,03:26:48,0.001,0.0,0.0,0.0
24/07/2022,03:27:48,0.001,0.0,0.0,0.0
24/07/2022,03:28:48,0.001,0.0,0.0,0.0
24/07/2022,03:29:48,0.001,0.0,0.0,0.0
24/07/2022,03:30:48,0.001,0.0,0.0,0.0
24/07/2022,03:31:48,0.001,0.0,0.0,0.0
24/07/2022,03:32:56,0.001,0.0,0.0,0.0
24/07/2022,03:33:49,0.001,0.0,0.0,0.0
24/07/2022,03:34:48,0.001,0.0,0.0,0.0
24/07/2022,03:35:57,0.001,0.0,0.0,0.0
24/07/2022,03:36:48,0.001,0.0,0.0,0.0
24/07/2022,03:37:48,0.001,0.0,0.0,0.0
24/07/2022,03:38:48,0.001,0.0,0.0,0.0
24/07/2022,03:39:47,0.001,0.0,0.0,0.0
24/07/2022,03:40:48,0.001,0.0,0.0,0.0
24/07/2022,03:41:48,0.001,0.0,0.0,0.0
24/07/2022,03:42:48,0.001,0.0,0.0,0.0
24/07/2022,03:43:48,0.001,0.0,0.0,0.0
24/07/2022,03:44:47,0.001,0.0,0.0,0.0
24/07/2022,03:45:48,0.001,0.0,0.0,0.0
24/07/2022,03:46:48,0.001,0.0,0.0,0.0
24/07/2022,03:47:48,0.001,0.0,0.0,0.0
24/07/2022,03:48:48,0.001,0.0,0.0,0.0
24/07/2022,03:49:47,0.001,0.0,0.0,0.0
24/07/2022,03:50:48,0.001,0.0,0.0,0.0
24/07/2022,03:51:48,0.001,0.0,0.0,0.0
24/07/2022,03:52:48,0.001,0.0,0.0,0.0
24/07/2022,03:54:04,0.001,0.0,0.0,0.0
24/07/2022,03:55:49,0.001,0.0,0.0,0.0
24/07/2022,03:56:48,0.001,0.0,0.0,0.0
24/07/2022,03:57:48,0.001,0.0,0.0,0.0
24/07/2022,03:58:48,0.001,0.0,0.0,0.0
24/07/2022,03:59:56,0.001,0.0,0.0,0.0
24/07/2022,04:00:48,0.001,0.0,0.0,0.0
24/07/2022,04:01:48,0.001,0.0,0.0,0.0
24/07/2022,04:02:48,0.001,0.0,0.0,0.0
24/07/2022,04:03:48,0.001,0.0,0.0,0.0
24/07/2022,04:04:49,0.001,0.0,0.0,0.0
24/07/2022,04:05:48,0.002,0.0,0.0,0.0
24/07/2022,04:06:48,0.001,0.0,0.0,0.0
24/07/2022,04:07:48,0.001,0.0,0.0,0.0
24/07/2022,04:08:48,0.001,0.0,0.0,0.0
24/07/2022,04:09:48,0.001,0.0,0.0,0.0
24/07/2022,04:10:48,0.001,0.0,0.0,0.0
24/07/2022,04:11:48,0.002,0.0,0.0,0.0
24/07/2022,04:12:48,0.001,0.0,0.0,0.0
24/07/2022,04:13:48,0.001,0.0,0.0,0.0
24/07/2022,04:14:56,0.001,0.0,0.0,0.0
24/07/2022,04:15:57,0.001,0.0,0.0,0.0
24/07/2022,04:16:48,0.002,0.0,0.0,0.0
24/07/2022,04:17:48,0.001,0.0,0.0,0.0
24/07/2022,04:18:48,0.002,0.0,0.0,0.0
24/07/2022,04:19:48,0.001,0.0,0.0,0.0
24/07/2022,04:20:48,0.001,0.0,0.0,0.0
24/07/2022,04:21:48,0.001,0.0,0.0,0.0
24/07/2022,04:22:48,0.002,0.0,0.0,0.0
24/07/2022,04:23:48,0.002,0.0,0.0,0.0
24/07/2022,04:24:48,0.001,0.0,0.0,0.0
24/07/2022,04:25:48,0.002,0.0,0.0,0.0
24/07/2022,04:26:48,0.001,0.0,0.0,0.0
24/07/2022,05:08:04,0.013,0.0,0.003,0.003
24/07/2022,05:09:49,0.013,0.0,0.003,0.0
24/07/2022,05:10:48,0.014,0.0,0.004,0.001
24/07/2022,05:11:48,0.015,0.0,0.004,0.0
24/07/2022,05:12:57,0.015,0.0,0.004,0.0
24/07/2022,05:13:47,0.015,0.0,0.004,0.0
24/07/2022,05:14:49,0.013,0.0,0.004,0.0
24/07/2022,05:15:56,0.015,0.0,0.005,0.001
24/07/2022,05:16:48,0.014,0.0,0.005,0.0
24/07/2022,05:17:48,0.015,0.0,0.005,0.0
24/07/2022,05:18:56,0.014,0.0,0.005,0.0
24/07/2022,05:19:48,0.015,0.0,0.006,0.001
24/07/2022,05:20:48,0.014,0.0,0.006,0.0
24/07/2022,05:21:49,0.016,0.0,0.006,0.0
24/07/2022,05:22:48,0.018,0.0,0.006,0.0
24/07/2022,05:23:48,0.019,0.0,0.007,0.001
24/07/2022,05:24:48,0.018,0.0,0.007,0.0
24/07/2022,05:25:48,0.018,0.0,0.007,0.0
24/07/2022,05:26:48,0.018,0.0,0.008,0.001
24/07/2022,05:27:48,0.018,0.0,0.008,0.0
24/07/2022,05:28:48,0.017,0.0,0.008,0.0
24/07/2022,05:29:49,0.018,0.0,0.009,0.001
24/07/2022,05:30:48,0.016,0.0,0.009,0.0
24/07/2022,05:31:56,0.018,0.0,0.009,0.0
24/07/2022,05:32:48,0.017,0.0,0.009,0.0
24/07/2022,05:33:49,0.018,0.0,0.01,0.001
24/07/2022,05:34:48,0.020,0.0,0.01,0.0
24/07/2022,05:35:48,0.021,0.0,0.01,0.0
24/07/2022,05:36:49,0.020,0.0,0.011,0.001
24/07/2022,05:37:48,0.022,0.0,0.011,0.0
24/07/2022,05:38:49,0.023,0.0,0.011,0.0
24/07/2022,05:39:48,0.024,0.0,0.012,0.001
24/07/2022,05:40:48,0.024,0.0,0.012,0.0
24/07/2022,05:41:48,0.023,0.0,0.013,0.001
24/07/2022,05:42:48,0.023,0.0,0.013,0.0
24/07/2022,05:43:48,0.024,0.0,0.013,0.0
24/07/2022,05:44:48,0.025,0.0,0.014,0.001
24/07/2022,05:45:49,0.026,0.0,0.014,0.0
24/07/2022,05:46:48,0.027,0.0,0.015,0.001
24/07/2022,05:47:48,0.030,0.0,0.015,0.0
24/07/2022,05:48:48,0.032,0.0,0.016,0.001
24/07/2022,05:49:49,0.034,0.0,0.016,0.0
24/07/2022,05:50:48,0.037,0.0,0.017,0.001
24/07/2022,05:51:48,0.039,0.0,0.017,0.0
24/07/2022,05:52:48,0.039,0.0,0.018,0.001
24/07/2022,05:53:49,0.039,0.0,0.019,0.001
24/07/2022,05:54:49,0.038,0.0,0.019,0.0
24/07/2022,05:56:03,0.038,0.0,0.02,0.001
24/07/2022,05:57:49,0.038,0.0,0.021,0.001
24/07/2022,05:58:49,0.037,0.0,0.022,0.001
24/07/2022,05:59:48,0.036,0.0,0.022,0.0
24/07/2022,06:00:48,0.035,0.0,0.023,0.001
24/07/2022,06:01:48,0.035,0.0,0.024,0.001
24/07/2022,06:02:48,0.037,0.0,0.024,0.0
24/07/2022,06:03:49,0.036,0.0,0.025,0.001
24/07/2022,06:04:49,0.038,0.0,0.025,0.0
24/07/2022,06:05:48,0.038,0.0,0.026,0.001
24/07/2022,06:06:48,0.039,0.0,0.027,0.001
24/07/2022,06:07:49,0.040,0.0,0.027,0.0
24/07/2022,06:08:48,0.040,0.0,0.028,0.001
24/07/2022,06:09:48,0.042,0.0,0.029,0.001
24/07/2022,06:10:48,0.042,0.0,0.029,0.0
24/07/2022,06:11:48,0.042,0.0,0.03,0.001
24/07/2022,06:12:48,0.041,0.0,0.031,0.001
24/07/2022,06:13:56,0.039,0.0,0.032,0.001
24/07/2022,06:14:49,0.040,0.0,0.032,0.0
24/07/2022,06:15:48,0.042,0.0,0.033,0.001
24/07/2022,06:16:48,0.045,0.0,0.034,0.001
24/07/2022,06:17:50,0.047,0.0,0.034,0.0
24/07/2022,06:18:48,0.050,0.0,0.035,0.001
24/07/2022,06:19:56,0.055,0.0,0.036,0.001
24/07/2022,06:20:48,0.058,0.0,0.037,0.001
24/07/2022,06:21:48,0.060,0.0,0.038,0.001
24/07/2022,06:22:48,0.059,0.0,0.039,0.001
24/07/2022,06:23:48,0.060,0.0,0.04,0.001
24/07/2022,06:24:48,0.057,0.0,0.041,0.001
24/07/2022,06:25:49,0.059,0.0,0.042,0.001
24/07/2022,06:26:48,0.063,0.0,0.043,0.001
24/07/2022,06:27:49,0.066,0.0,0.044,0.001
24/07/2022,06:28:48,0.066,0.0,0.045,0.001
24/07/2022,06:29:49,0.060,0.0,0.046,0.001
24/07/2022,06:30:48,0.064,0.0,0.047,0.001
24/07/2022,06:31:49,0.058,0.0,0.048,0.001
24/07/2022,06:32:48,0.056,0.0,0.049,0.001
24/07/2022,06:33:49,0.053,0.0,0.05,0.001
24/07/2022,06:34:50,0.059,0.0,0.051,0.001
24/07/2022,06:35:57,0.069,0.0,0.052,0.001
24/07/2022,06:36:48,0.072,0.0,0.053,0.001
24/07/2022,06:37:48,0.078,0.0,0.054,0.001
24/07/2022,06:38:57,0.066,0.0,0.056,0.002
24/07/2022,06:39:48,0.073,0.0,0.057,0.001
24/07/2022,06:40:48,0.073,0.0,0.058,0.001
24/07/2022,06:41:48,0.062,0.0,0.059,0.001
24/07/2022,06:42:57,0.062,0.0,0.06,0.001
24/07/2022,06:43:48,0.061,0.0,0.061,0.001
24/07/2022,06:44:56,0.061,0.0,0.062,0.001
24/07/2022,06:45:48,0.069,0.0,0.063,0.001
24/07/2022,06:46:48,0.063,0.0,0.064,0.001
24/07/2022,06:47:48,0.051,0.0,0.065,0.001
24/07/2022,06:48:49,0.047,0.0,0.066,0.001
24/07/2022,06:49:48,0.053,0.0,0.067,0.001
24/07/2022,06:50:48,0.057,0.0,0.068,0.001
24/07/2022,06:51:48,0.054,0.0,0.069,0.001
24/07/2022,06:52:48,0.053,0.0,0.07,0.001
24/07/2022,06:53:48,0.053,0.0,0.071,0.001
24/07/2022,06:54:48,0.054,0.0,0.071,0.0
24/07/2022,06:55:48,0.062,0.0,0.072,0.001
24/07/2022,06:56:48,0.065,0.0,0.074,0.002
24/07/2022,06:58:05,0.062,0.0,0.075,0.001
24/07/2022,06:59:49,0.065,0.0,0.077,0.002
24/07/2022,07:00:48,0.068,0.0,0.078,0.001
24/07/2022,07:01:48,0.071,0.0,0.079,0.001
24/07/2022,07:02:48,0.083,0.0,0.08,0.001
24/07/2022,07:03:48,0.089,0.0,0.082,0.002
24/07/2022,07:04:48,0.110,0.0,0.083,0.001
24/07/2022,07:05:49,0.106,0.0,0.085,0.002
24/07/2022,07:06:48,0.104,0.0,0.087,0.002
24/07/2022,07:07:49,0.111,0.0,0.089,0.002
24/07/2022,07:08:48,0.110,0.0,0.09,0.001
24/07/2022,07:09:48,0.112,0.0,0.092,0.002
24/07/2022,07:10:49,0.100,0.0,0.094,0.002
24/07/2022,07:11:48,0.094,0.0,0.096,0.002
24/07/2022,07:12:48,0.098,0.0,0.097,0.001
24/07/2022,07:13:50,0.093,0.0,0.099,0.002
24/07/2022,07:14:48,0.102,0.0,0.101,0.002
24/07/2022,07:15:48,0.094,0.0,0.102,0.001
24/07/2022,07:16:48,0.086,0.0,0.104,0.002
24/07/2022,07:17:48,0.082,0.0,0.105,0.001
24/07/2022,07:18:49,0.081,0.0,0.106,0.001
24/07/2022,07:19:48,0.077,0.0,0.108,0.002
24/07/2022,07:20:57,0.081,0.0,0.109,0.001
24/07/2022,07:21:48,0.086,0.0,0.11,0.001
24/07/2022,07:22:49,0.090,0.0,0.112,0.002
24/07/2022,07:23:56,0.085,0.0,0.114,0.002
24/07/2022,07:24:49,0.085,0.0,0.115,0.001
24/07/2022,07:25:49,0.079,0.0,0.116,0.001
24/07/2022,07:26:48,0.087,0.0,0.118,0.002
24/07/2022,07:27:48,0.089,0.0,0.119,0.001
24/07/2022,07:28:48,0.084,0.0,0.12,0.001
24/07/2022,07:29:48,0.094,0.0,0.122,0.002
24/07/2022,07:30:48,0.095,0.0,0.123,0.001
24/07/2022,07:32:01,0.093,0.0,0.125,0.002
24/07/2022,07:33:49,0.105,0.0,0.128,0.003
24/07/2022,07:34:48,0.107,0.0,0.13,0.002
24/07/2022,07:35:48,0.118,0.0,0.132,0.002
24/07/2022,07:36:57,0.130,0.0,0.134,0.002
24/07/2022,07:37:48,0.117,0.0,0.136,0.002
24/07/2022,07:38:49,0.110,0.0,0.138,0.002
24/07/2022,07:39:48,0.127,0.0,0.14,0.002
24/07/2022,07:40:49,0.136,0.0,0.142,0.002
24/07/2022,07:41:48,0.133,0.0,0.144,0.002
24/07/2022,07:43:05,0.140,0.0,0.147,0.003
24/07/2022,07:44:49,0.137,0.0,0.151,0.004
24/07/2022,07:45:48,0.136,0.0,0.154,0.003
24/07/2022,07:46:48,0.160,0.0,0.156,0.002
24/07/2022,07:47:49,0.177,0.0,0.159,0.003
24/07/2022,07:48:48,0.171,0.0,0.162,0.003
24/07/2022,07:49:49,0.175,0.0,0.165,0.003
24/07/2022,07:50:48,0.172,0.0,0.168,0.003
24/07/2022,07:51:48,0.174,0.0,0.17,0.002
24/07/2022,07:52:49,0.187,0.0,0.173,0.003
24/07/2022,07:53:48,0.209,0.0,0.177,0.004
24/07/2022,07:54:49,0.209,0.0,0.18,0.003
24/07/2022,07:55:48,0.202,0.0,0.184,0.004
24/07/2022,07:56:48,0.186,0.0,0.187,0.003
24/07/2022,07:57:49,0.197,0.0,0.19,0.003
24/07/2022,07:58:48,0.212,0.0,0.193,0.003
24/07/2022,07:59:48,0.213,0.0,0.197,0.004
24/07/2022,08:00:48,0.212,0.0,0.201,0.004
24/07/2022,08:01:48,0.203,0.0,0.204,0.003
24/07/2022,08:02:48,0.209,0.0,0.207,0.003
24/07/2022,08:03:49,0.196,0.0,0.211,0.004
24/07/2022,08:04:48,0.192,0.0,0.214,0.003
24/07/2022,08:05:48,0.201,0.0,0.217,0.003
24/07/2022,08:06:57,0.206,0.0,0.221,0.004
24/07/2022,08:07:49,0.225,1.0,0.224,0.003
24/07/2022,08:08:49,0.208,0.0,0.228,0.004
24/07/2022,08:09:56,0.227,1.0,0.232,0.004
24/07/2022,08:10:49,0.266,1.0,0.235,0.003
24/07/2022,08:11:49,0.262,1.0,0.24,0.005
24/07/2022,08:12:48,0.265,1.0,0.244,0.004
24/07/2022,08:13:48,0.276,1.0,0.249,0.005
24/07/2022,08:14:48,0.305,1.0,0.254,0.005
24/07/2022,08:15:49,0.323,1.0,0.259,0.005
24/07/2022,08:16:48,0.311,1.0,0.264,0.005
24/07/2022,08:17:49,0.362,1.0,0.27,0.006
24/07/2022,08:18:49,0.416,1.0,0.276,0.006
24/07/2022,08:19:48,0.400,1.0,0.283,0.007
24/07/2022,08:20:48,0.387,1.0,0.29,0.007
24/07/2022,08:21:49,0.424,1.0,0.296,0.006
24/07/2022,08:22:48,0.443,1.0,0.304,0.008
24/07/2022,08:23:49,0.461,1.0,0.311,0.007
24/07/2022,08:24:48,0.442,1.0,0.319,0.008
24/07/2022,08:25:48,0.488,1.0,0.326,0.007
24/07/2022,08:26:49,0.545,1.0,0.335,0.009
24/07/2022,08:27:48,0.518,1.0,0.344,0.009
24/07/2022,08:28:48,0.541,1.0,0.353,0.009
24/07/2022,08:29:49,0.543,1.0,0.362,0.009
24/07/2022,08:30:48,0.514,1.0,0.37,0.008
24/07/2022,08:31:48,0.455,1.0,0.378,0.008
24/07/2022,08:32:49,0.488,1.0,0.386,0.008
24/07/2022,08:33:56,0.486,1.0,0.396,0.01
24/07/2022,08:34:49,0.512,1.0,0.402,0.006
24/07/2022,08:35:49,0.561,1.0,0.411,0.009
24/07/2022,08:36:57,0.678,2.0,0.423,0.012
24/07/2022,08:37:49,0.697,2.0,0.433,0.01
24/07/2022,08:38:48,0.689,2.0,0.444,0.011
24/07/2022,08:39:48,0.816,2.0,0.456,0.012
24/07/2022,08:40:48,0.645,1.0,0.47,0.014
24/07/2022,08:41:48,0.626,1.0,0.481,0.011
24/07/2022,08:42:49,0.588,1.0,0.491,0.01
24/07/2022,08:43:48,0.494,1.0,0.5,0.009
24/07/2022,08:44:48,0.483,1.0,0.508,0.008
24/07/2022,08:45:49,0.526,1.0,0.516,0.008
24/07/2022,08:46:48,0.508,1.0,0.525,0.009
24/07/2022,08:47:49,0.552,1.0,0.534,0.009
24/07/2022,08:48:48,0.541,1.0,0.543,0.009
24/07/2022,08:49:49,0.536,1.0,0.552,0.009
24/07/2022,08:50:48,0.560,1.0,0.561,0.009
24/07/2022,08:51:48,0.592,1.0,0.57,0.009
24/07/2022,08:52:49,0.586,1.0,0.58,0.01
24/07/2022,08:53:48,0.569,1.0,0.59,0.01
24/07/2022,08:54:49,0.560,1.0,0.599,0.009
24/07/2022,08:55:48,0.571,1.0,0.609,0.01
24/07/2022,08:56:49,0.596,1.0,0.619,0.01
24/07/2022,08:57:57,0.710,2.0,0.631,0.012
24/07/2022,08:58:49,0.775,2.0,0.641,0.01
24/07/2022,08:59:49,0.668,2.0,0.654,0.013
24/07/2022,09:00:48,0.583,1.0,0.664,0.01
24/07/2022,09:01:48,0.522,1.0,0.674,0.01
24/07/2022,09:02:49,0.547,1.0,0.683,0.009
24/07/2022,09:03:49,0.592,1.0,0.692,0.009
24/07/2022,09:04:49,0.646,1.0,0.702,0.01
24/07/2022,09:05:49,0.611,1.0,0.713,0.011
24/07/2022,09:06:48,0.657,2.0,0.723,0.01
24/07/2022,09:07:49,0.640,1.0,0.734,0.011
24/07/2022,09:09:01,0.628,1.0,0.747,0.013
24/07/2022,09:10:50,0.783,2.0,0.768,0.021
24/07/2022,09:11:49,0.731,2.0,0.781,0.013
24/07/2022,09:12:49,0.689,2.0,0.793,0.012
24/07/2022,09:13:48,0.619,1.0,0.804,0.011
24/07/2022,09:14:48,0.565,1.0,0.813,0.009
24/07/2022,09:15:57,0.544,1.0,0.824,0.011
24/07/2022,09:16:48,0.582,1.0,0.832,0.008
24/07/2022,09:17:49,0.651,1.0,0.842,0.01
24/07/2022,09:18:56,0.768,2.0,0.856,0.014
24/07/2022,09:19:49,0.807,2.0,0.867,0.011
24/07/2022,09:20:48,0.818,2.0,0.881,0.014
24/07/2022,09:21:56,0.732,2.0,0.895,0.014
24/07/2022,09:22:49,0.694,2.0,0.905,0.01
24/07/2022,09:23:49,0.704,2.0,0.917,0.012
24/07/2022,09:24:49,0.711,2.0,0.929,0.012
24/07/2022,09:25:48,0.710,2.0,0.941,0.012
24/07/2022,09:26:49,0.649,1.0,0.952,0.011
24/07/2022,09:27:57,0.623,1.0,0.964,0.012
24/07/2022,09:28:48,0.682,2.0,0.973,0.009
24/07/2022,09:29:48,0.782,2.0,0.986,0.013
24/07/2022,09:30:49,0.894,2.0,0.999,0.013
24/07/2022,09:31:49,0.916,2.0,1.014,0.015
24/07/2022,09:32:48,0.972,2.0,1.03,0.016
24/07/2022,09:33:49,1.308,3.0,1.05,0.02
24/07/2022,09:34:49,1.199,3.0,1.071,0.021
24/07/2022,09:35:50,1.567,4.0,1.094,0.023
24/07/2022,09:36:49,1.735,4.0,1.121,0.027
24/07/2022,09:37:49,1.775,4.0,1.15,0.029
24/07/2022,09:38:48,1.818,4.0,1.18,0.03
24/07/2022,09:39:48,1.276,3.0,1.204,0.024
24/07/2022,09:40:49,1.642,4.0,1.229,0.025
24/07/2022,09:41:48,1.865,4.0,1.259,0.03
24/07/2022,09:42:50,1.343,3.0,1.287,0.028
24/07/2022,09:43:57,1.300,3.0,1.311,0.024
24/07/2022,09:44:49,1.381,3.0,1.333,0.022
24/07/2022,09:45:49,1.726,4.0,1.358,0.025
24/07/2022,09:46:48,1.489,3.0,1.381,0.023
24/07/2022,09:47:48,1.825,4.0,1.409,0.028
24/07/2022,09:48:50,1.167,3.0,1.433,0.024
24/07/2022,09:49:48,1.841,4.0,1.458,0.025
24/07/2022,09:50:48,1.222,3.0,1.481,0.023
24/07/2022,09:51:57,1.263,3.0,1.504,0.023
24/07/2022,09:52:49,1.091,3.0,1.52,0.016
24/07/2022,09:53:48,1.097,3.0,1.538,0.018
24/07/2022,09:55:04,1.103,3.0,1.562,0.024
24/07/2022,09:56:49,1.511,3.0,1.598,0.036
24/07/2022,09:57:49,1.176,3.0,1.62,0.022
24/07/2022,09:58:49,1.195,3.0,1.639,0.019
24/07/2022,09:59:49,1.231,3.0,1.659,0.02
24/07/2022,10:00:49,1.211,3.0,1.682,0.023
24/07/2022,10:01:48,1.225,3.0,1.703,0.021
24/07/2022,10:02:50,1.103,3.0,1.723,0.02
24/07/2022,10:03:49,1.117,3.0,1.741,0.018
24/07/2022,10:04:49,1.151,3.0,1.76,0.019
24/07/2022,10:05:49,1.116,3.0,1.778,0.018
24/07/2022,10:06:49,1.175,3.0,1.798,0.02
24/07/2022,10:07:50,1.529,4.0,1.822,0.024
24/07/2022,10:08:49,1.350,3.0,1.845,0.023
24/07/2022,10:09:49,1.743,4.0,1.87,0.025
24/07/2022,10:10:48,1.634,4.0,1.897,0.027
24/07/2022,10:11:48,2.129,5.0,1.928,0.031
24/07/2022,10:12:57,1.642,4.0,1.959,0.031
24/07/2022,10:13:49,1.407,3.0,1.987,0.028
24/07/2022,10:14:49,2.108,5.0,2.016,0.029
24/07/2022,10:15:58,1.317,3.0,2.044,0.028
24/07/2022,10:16:47,1.430,3.0,2.061,0.017
24/07/2022,10:17:49,1.195,3.0,2.084,0.023
24/07/2022,10:18:56,1.305,3.0,2.107,0.023
24/07/2022,10:19:49,1.995,5.0,2.129,0.022
24/07/2022,10:20:49,2.045,5.0,2.156,0.027
24/07/2022,10:21:57,1.623,4.0,2.195,0.039
24/07/2022,10:22:49,2.138,5.0,2.225,0.03
24/07/2022,10:23:49,1.902,4.0,2.258,0.033
24/07/2022,10:24:48,1.747,4.0,2.288,0.03
24/07/2022,10:25:48,1.963,5.0,2.323,0.035
24/07/2022,10:26:49,2.145,5.0,2.355,0.032
24/07/2022,10:27:48,2.123,5.0,2.391,0.036
24/07/2022,10:28:48,1.885,4.0,2.422,0.031
24/07/2022,10:29:49,1.983,5.0,2.455,0.033
24/07/2022,10:30:48,1.997,5.0,2.49,0.035
24/07/2022,10:31:49,2.201,5.0,2.525,0.035
24/07/2022,10:32:49,2.248,5.0,2.562,0.037
24/07/2022,10:33:48,2.223,5.0,2.6,0.038
24/07/2022,10:34:49,1.520,3.0,2.634,0.034
24/07/2022,10:35:50,1.468,3.0,2.66,0.026
24/07/2022,10:36:57,2.209,5.0,2.697,0.037
24/07/2022,10:37:48,2.238,5.0,2.729,0.032
24/07/2022,10:38:49,2.238,5.0,2.766,0.037
24/07/2022,10:39:57,2.251,5.0,2.808,0.042
24/07/2022,10:40:49,2.228,5.0,2.839,0.031
24/07/2022,10:41:49,2.215,5.0,2.876,0.037
24/07/2022,10:42:48,2.208,5.0,2.913,0.037
24/07/2022,10:43:50,2.225,5.0,2.948,0.035
24/07/2022,10:44:48,2.228,5.0,2.984,0.036
24/07/2022,10:45:49,2.006,5.0,3.022,0.038
24/07/2022,10:46:49,2.229,5.0,3.053,0.031
24/07/2022,10:47:48,1.986,5.0,3.086,0.033
24/07/2022,10:48:49,2.244,5.0,3.123,0.037
24/07/2022,10:49:49,2.265,5.0,3.161,0.038
24/07/2022,10:50:49,2.301,5.0,3.199,0.038
24/07/2022,10:51:49,2.299,5.0,3.237,0.038
24/07/2022,10:52:49,2.277,5.0,3.275,0.038
24/07/2022,10:53:49,2.253,5.0,3.313,0.038
24/07/2022,10:54:49,2.263,5.0,3.35,0.037